Location: downtown San Diego
(32.7310°N, 117.1990°W)
Time: 17:16:30
(UTC-08:00)

MetOp-B - Pass Details

Date: 12 July 2018
Orbit: 819 x 822 km, 98.7° (Epoch: 16 December)

Event Time Altitude Azimuth Distance (km) Brightness Sun altitude
Exits shadow 21:28:05 26° 140° (SE) 1,559 5.0 -16.5°
Maximum altitude 21:30:57 55° 73° (ENE) 979 4.3 -16.9°
Drops below altitude 10° 21:36:10 10° 357° (N) 2,423 7.2 -17.8°
Sets 21:38:33 0° 353° (N) 3,359 8.1 -18.1°
